When you browse on this site, cookies collect data to enhance your experience and personalize the content and advertising you see.
Visit our Privacy Policy to learn more. By continuing to use the site, you agree to this use of cookies and data.
  • In Österreich
  • Länderverzeichnis
  • Für 7 Tage
  • Wassertemperatur
  • Satellitenkarten
  • Wetterkarte
  • News
  • Widgets
  • user-avatar
    Anmelden

    Stündliche Wetter Rohovi Smolyary

    Heute, 20 Mai, Montag

    Zeit Temperatur Niederschläge Wind Luftdruck Luftfeuchtigkeit
    00:00 +17°C° 0 mm 4 m/S 741 mmHg 95%
    01:00 +17°C° 0 mm 4 m/S 741 mmHg 95%
    02:00 +17°C° 0 mm 4 m/S 741 mmHg 96%
    03:00 +17°C° 0.5 mm 4 m/S 741 mmHg 96%
    04:00 +16°C° 0.5 mm 5 m/S 740 mmHg 97%
    05:00 +16°C° 0.5 mm 5 m/S 740 mmHg 97%
    06:00 +17°C° 0 mm 6 m/S 740 mmHg 94%
    07:00 +19°C° 0 mm 6 m/S 740 mmHg 91%
    08:00 +21°C° 0 mm 7 m/S 740 mmHg 88%
    09:00 +22°C° 0 mm 7 m/S 740 mmHg 83%
    10:00 +23°C° 0 mm 7 m/S 741 mmHg 78%
    11:00 +24°C° 0 mm 7 m/S 741 mmHg 73%
    12:00 +24°C° 0.6 mm 7 m/S 740 mmHg 72%
    13:00 +26°C° 0.6 mm 7 m/S 740 mmHg 70%
    14:00 +26°C° 0 mm 7 m/S 740 mmHg 69%
    15:00 +24°C° 1.9 mm 6 m/S 740 mmHg 74%
    16:00 +23°C° 1.9 mm 6 m/S 740 mmHg 78%
    17:00 +22°C° 1.9 mm 5 m/S 740 mmHg 83%
    18:00 +21°C° 0.5 mm 4 m/S 740 mmHg 86%
    19:00 +20°C° 0.5 mm 3 m/S 740 mmHg 88%
    20:00 +19°C° 0.5 mm 2 m/S 740 mmHg 91%
    21:00 +18°C° 0 mm 3 m/S 740 mmHg 91%
    22:00 +18°C° 0 mm 3 m/S 740 mmHg 91%
    23:00 +18°C° 0 mm 4 m/S 740 mmHg 91%

    Morgen, 21 Mai, Dienstag

    Zeit Temperatur Niederschläge Wind Luftdruck Luftfeuchtigkeit
    00:00 +18°C° 0.1 mm 4 m/S 740 mmHg 91%
    01:00 +17°C° 0.1 mm 4 m/S 740 mmHg 91%
    02:00 +17°C° 0.1 mm 3 m/S 740 mmHg 91%
    03:00 +17°C° 0 mm 4 m/S 740 mmHg 93%
    04:00 +15°C° 0 mm 4 m/S 739 mmHg 95%
    05:00 +15°C° 0 mm 4 m/S 739 mmHg 96%
    06:00 +17°C° 0 mm 4 m/S 739 mmHg 93%
    07:00 +16°C° 0 mm 5 m/S 739 mmHg 91%
    08:00 +17°C° 0 mm 5 m/S 739 mmHg 88%
    09:00 +17°C° 0.1 mm 5 m/S 739 mmHg 87%
    10:00 +17°C° 0.1 mm 6 m/S 738 mmHg 86%
    11:00 +17°C° 0.1 mm 6 m/S 738 mmHg 84%
    12:00 +17°C° 0.4 mm 7 m/S 738 mmHg 84%
    13:00 +17°C° 0.4 mm 7 m/S 738 mmHg 83%
    14:00 +17°C° 0.4 mm 8 m/S 738 mmHg 82%
    15:00 +17°C° 0 mm 7 m/S 738 mmHg 81%
    16:00 +16°C° 0 mm 7 m/S 738 mmHg 79%
    17:00 +15°C° 0 mm 7 m/S 738 mmHg 77%
    18:00 +15°C° 0 mm 6 m/S 738 mmHg 79%
    19:00 +14°C° 0 mm 5 m/S 738 mmHg 81%
    20:00 +13°C° 0 mm 4 m/S 738 mmHg 83%
    21:00 +13°C° 0 mm 5 m/S 738 mmHg 84%
    22:00 +13°C° 0 mm 5 m/S 738 mmHg 84%
    23:00 +12°C° 0 mm 5 m/S 738 mmHg 84%

    übermorgen, 22 Mai, Mittwoch

    Zeit Temperatur Niederschläge Wind Luftdruck Luftfeuchtigkeit
    00:00 +12°C° 0 mm 5 m/S 738 mmHg 85%
    01:00 +12°C° 0 mm 5 m/S 738 mmHg 86%
    02:00 +12°C° 0 mm 5 m/S 738 mmHg 87%
    03:00 +12°C° 0.1 mm 5 m/S 738 mmHg 89%
    04:00 +12°C° 0.1 mm 5 m/S 738 mmHg 90%
    05:00 +12°C° 0.1 mm 5 m/S 738 mmHg 91%
    06:00 +12°C° 0.8 mm 5 m/S 738 mmHg 92%
    07:00 +13°C° 0.8 mm 5 m/S 738 mmHg 93%
    08:00 +13°C° 0.8 mm 4 m/S 738 mmHg 94%
    09:00 +14°C° 0.2 mm 4 m/S 739 mmHg 91%
    10:00 +15°C° 0.2 mm 4 m/S 739 mmHg 87%
    11:00 +17°C° 0.2 mm 4 m/S 739 mmHg 84%
    12:00 +17°C° 0.4 mm 4 m/S 739 mmHg 81%
    13:00 +18°C° 0.4 mm 4 m/S 739 mmHg 78%
    14:00 +19°C° 0.4 mm 4 m/S 739 mmHg 75%
    15:00 +19°C° 0.1 mm 4 m/S 739 mmHg 74%
    16:00 +19°C° 0.1 mm 3 m/S 739 mmHg 73%
    17:00 +19°C° 0.1 mm 3 m/S 739 mmHg 72%
    18:00 +18°C° 0.1 mm 2 m/S 739 mmHg 77%
    19:00 +17°C° 0.1 mm 2 m/S 739 mmHg 82%
    20:00 +16°C° 0.1 mm 2 m/S 739 mmHg 88%
    21:00 +15°C° 0 mm 2 m/S 739 mmHg 90%
    22:00 +14°C° 0 mm 2 m/S 740 mmHg 92%
    23:00 +13°C° 0 mm 2 m/S 740 mmHg 94%

    23 Mai, Donnerstag

    Zeit Temperatur Niederschläge Wind Luftdruck Luftfeuchtigkeit
    00:00 +13°C° 0 mm 2 m/S 740 mmHg 95%
    01:00 +13°C° 0 mm 1 m/S 740 mmHg 95%
    02:00 +12°C° 0 mm 1 m/S 740 mmHg 96%
    03:00 +12°C° 0 mm 1 m/S 740 mmHg 96%
    04:00 +12°C° 0 mm 1 m/S 740 mmHg 96%
    05:00 +12°C° 0 mm 1 m/S 740 mmHg 97%
    06:00 +13°C° 0 mm 1 m/S 741 mmHg 92%
    07:00 +15°C° 0 mm 1 m/S 741 mmHg 88%
    08:00 +18°C° 0 mm 1 m/S 741 mmHg 84%
    09:00 +19°C° 0.4 mm 1 m/S 741 mmHg 81%
    10:00 +20°C° 0.4 mm 1 m/S 741 mmHg 77%
    11:00 +21°C° 0.4 mm 1 m/S 741 mmHg 74%
    12:00 +21°C° 1.5 mm 1 m/S 741 mmHg 73%
    13:00 +21°C° 1.5 mm 2 m/S 741 mmHg 73%
    14:00 +21°C° 1.5 mm 2 m/S 741 mmHg 72%
    15:00 +20°C° 1.2 mm 3 m/S 741 mmHg 76%
    16:00 +20°C° 1.2 mm 4 m/S 741 mmHg 80%
    17:00 +19°C° 1.2 mm 5 m/S 741 mmHg 83%
    18:00 +17°C° 1.1 mm 5 m/S 742 mmHg 86%
    19:00 +16°C° 1.1 mm 5 m/S 742 mmHg 90%
    20:00 +15°C° 1.1 mm 6 m/S 742 mmHg 93%
    21:00 +14°C° 0.5 mm 6 m/S 742 mmHg 94%
    22:00 +14°C° 0.5 mm 6 m/S 742 mmHg 94%
    23:00 +13°C° 0.5 mm 6 m/S 742 mmHg 95%

    24 Mai, Freitag

    Zeit Temperatur Niederschläge Wind Luftdruck Luftfeuchtigkeit
    00:00 +11°C° 0.2 mm 6 m/S 742 mmHg 95%
    01:00 +10°C° 0.2 mm 6 m/S 742 mmHg 95%
    02:00 +10°C° 0.2 mm 5 m/S 742 mmHg 95%
    03:00 +9°C° 0.1 mm 5 m/S 742 mmHg 94%
    04:00 +9°C° 0.1 mm 5 m/S 742 mmHg 93%
    05:00 +8°C° 0.1 mm 5 m/S 743 mmHg 93%
    06:00 +8°C° 0.1 mm 5 m/S 743 mmHg 91%
    07:00 +9°C° 0.1 mm 5 m/S 743 mmHg 90%
    08:00 +9°C° 0.1 mm 5 m/S 743 mmHg 88%
    09:00 +9°C° 0.1 mm 5 m/S 743 mmHg 87%
    10:00 +10°C° 0.1 mm 5 m/S 743 mmHg 86%
    11:00 +11°C° 0.1 mm 4 m/S 743 mmHg 84%
    12:00 +13°C° 0 mm 4 m/S 743 mmHg 80%
    13:00 +14°C° 0 mm 4 m/S 743 mmHg 76%
    14:00 +17°C° 0 mm 4 m/S 743 mmHg 72%
    15:00 +17°C° 0 mm 4 m/S 742 mmHg 70%
    16:00 +18°C° 0 mm 4 m/S 742 mmHg 69%
    17:00 +18°C° 0 mm 4 m/S 742 mmHg 68%
    18:00 +17°C° 0 mm 3 m/S 742 mmHg 72%
    19:00 +16°C° 0 mm 3 m/S 742 mmHg 77%
    20:00 +15°C° 0 mm 2 m/S 742 mmHg 82%
    21:00 +14°C° 0 mm 2 m/S 742 mmHg 83%
    22:00 +14°C° 0 mm 2 m/S 742 mmHg 85%
    23:00 +13°C° 0 mm 2 m/S 742 mmHg 86%

    25 Mai, Samstag

    Zeit Temperatur Niederschläge Wind Luftdruck Luftfeuchtigkeit
    00:00 +12°C° 0 mm 2 m/S 742 mmHg 89%
    01:00 +12°C° 0 mm 2 m/S 742 mmHg 91%
    02:00 +10°C° 0 mm 2 m/S 742 mmHg 93%
    03:00 +10°C° 0 mm 2 m/S 742 mmHg 93%
    04:00 +10°C° 0 mm 2 m/S 742 mmHg 94%
    05:00 +9°C° 0 mm 2 m/S 742 mmHg 94%
    06:00 +12°C° 0 mm 2 m/S 742 mmHg 87%
    07:00 +14°C° 0 mm 2 m/S 742 mmHg 80%
    08:00 +16°C° 0 mm 2 m/S 742 mmHg 74%
    09:00 +17°C° 0 mm 2 m/S 742 mmHg 67%
    10:00 +18°C° 0 mm 2 m/S 742 mmHg 60%
    11:00 +19°C° 0 mm 2 m/S 742 mmHg 54%
    12:00 +20°C° 0 mm 2 m/S 742 mmHg 53%
    13:00 +20°C° 0 mm 2 m/S 742 mmHg 53%
    14:00 +21°C° 0 mm 2 m/S 741 mmHg 52%
    15:00 +21°C° 0 mm 2 m/S 741 mmHg 54%
    16:00 +21°C° 0 mm 3 m/S 741 mmHg 55%
    17:00 +21°C° 0 mm 3 m/S 741 mmHg 57%
    18:00 +19°C° 0 mm 2 m/S 741 mmHg 63%
    19:00 +18°C° 0 mm 2 m/S 741 mmHg 69%
    20:00 +16°C° 0 mm 2 m/S 741 mmHg 75%
    21:00 +16°C° 0 mm 2 m/S 741 mmHg 77%
    22:00 +15°C° 0 mm 2 m/S 741 mmHg 79%
    23:00 +14°C° 0 mm 2 m/S 741 mmHg 81%
    Mehr zeigen